Lid_Strength_Index
11 10 11 10 10 10 10 10 12 15 14 11 11 9 9 9 9 9 9 8 8 7 7 7 8 8 8 7 6 6 5 4 3 2 1 2 2 2
11 11 11 10 10 10 10 10 11 12 15 12 11 10 9 9 9 9 9 8 8 8 7 7 7 8 8 8 7 6 6 5 4 3 1 1 2 2
11 11 11 11 11 11 11 11 11 11 14 13 11 11 11 11 10 9 9 10 10 8 8 7 7 7 8 8 8 8 7 6 6 4 3 1 2 2
12 12 12 12 12 12 12 12 12 12 13 15 13 13 13 12 11 12 11 10 10 8 7 7 7 7 7 7 7 8 8 7 7 6 5 4 3 2
12 12 12 12 12 12 12 12 12 12 12 13 14 12 12 12 13 12 12 12 10 9 8 7 7 7 7 7 7 7 8 8 7 7 7 6 5 4
11 11 11 11 12 12 12 12 11 12 12 13 13 13 13 12 12 13 13 12 13 11 11 11 9 9 8 7 7 7 7 8 8 7 7 7 6 5
11 11 11 11 10 10 11 12 12 13 13 14 14 14 14 14 14 13 14 13 13 12 13 13 13 11 11 9 8 7 7 7 7 7 8 7 7 6
11 11 11 10 11 10 10 10 10 12 13 14 14 14 13 13 13 13 14 15 16 12 13 13 12 13 12 12 10 9 8 7 7 8 7 7 7 7
11 11 11 11 11 11 10 10 10 9 9 11 12 12 13 12 12 13 13 13 14 12 12 14 12 13 12 11 9 9 9 9 8 8 7 8 7 7
11 11 11 11 10 10 11 10 10 10 10 10 10 10 10 10 10 11 12 12 11 11 11 15 12 13 12 12 10 9 9 9 9 8 8 7 7 7
10 10 10 10 9 8 9 10 10 10 8 7 7 7 7 7 7 9 11 13 14 13 10 12 12 13 12 12 11 10 9 8 8 9 8 8 7 7
10 9 8 8 8 7 9 11 13 12 12 11 10 10 9 9 8 9 11 14 14 15 11 13 13 13 15 12 11 11 12 10 9 8 8 8 7 9
10 10 9 8 8 8 8 11 12 11 11 13 13 12 12 11 11 10 10 11 13 14 11 11 13 13 14 14 12 12 12 12 12 11 9 9 8 8
10 9 9 8 8 9 10 10 10 11 14 14 15 15 14 14 12 12 12 12 11 12 11 11 13 14 15 15 16 13 12 12 12 12 12 11 9 7
9 8 7 9 9 10 11 11 12 14 15 16 17 16 14 14 13 14 13 13 12 12 11 11 12 13 13 15 16 15 14 13 12 12 12 13 11 9
8 10 10 9 10 10 12 13 13 14 15 16 16 15 15 16 16 15 15 15 15 15 13 12 12 12 14 14 14 15 14 15 13 12 12 12 11 8
9 12 12 12 13 13 13 14 14 14 15 15 16 17 17 16 16 16 16 16 17 16 15 13 12 11 12 13 14 14 14 14 13 13 13 13 12 10
11 13 14 14 14 14 15 15 15 15 15 16 17 16 17 17 17 16 16 16 16 16 14 12 12 12 12 12 9 13 13 13 13 13 13 15 14 10
14 14 15 15 15 14 15 16 16 16 16 16 16 17 17 17 17 16 16 16 16 15 14 13 12 13 15 16 11 7 11 11 11 13 13 14 14 11
15 16 16 16 16 16 16 17 17 17 17 17 17 17 17 16 16 16 16 17 17 16 16 14 13 12 13 14 13 10 7 9 9 11 12 11 10 7
15 16 16 16 16 17 18 18 18 18 18 18 17 17 17 16 16 16 16 17 16 16 16 15 13 10 10 9 11 11 9 5 6 9 9 10 10 9
16 17 17 17 17 19 19 19 19 19 19 18 18 17 17 16 16 16 16 17 17 16 15 13 12 11 10 10 10 10 8 8 6 7 6 6 7 10
17 18 18 18 19 20 20 20 20 20 19 19 18 18 17 18 16 15 16 16 16 16 15 14 13 11 10 9 8 9 9 9 10 10 10 6 5 5